Location: ????????
(55.3939°N, 37.4780°E)
Time: 08:08:23
(UTC+00:00)

Cosmos 2360 Rocket - Pass Details

Date: 14 April 2026
Orbit: 831 x 845 km, 71.0° (Epoch: 9 May)

Event Time Altitude Azimuth Distance (km) Brightness Sun altitude
Rises 23:09:47 0° 322° (NW) 3,410 5.7 -21.7°
Reaches altitude 10° 23:12:33 10° 333° (NNW) 2,475 5.1 -21.5°
Maximum altitude 23:17:32 30° 34° (NE) 1,469 4.1 -21.2°
Drops below altitude 10° 23:22:30 10° 96° (E) 2,471 4.9 -20.8°
Sets 23:25:15 0° 107° (ESE) 3,404 5.5 -20.6°
